Showing default

OPS 5712 (P/L 160), 2826

Orbit data source: Space-Track

OPS 5712 (P/L 160), 2826 is a payload satellite owned by NRL (US) in LEO that was launched on Wed, 31 May 1967 UTC via a THOR SLV-2 AGENA D launch vehicle from the Air Force Western Test Range (AFWTR). Payload-class satellites include a variety of spacecraft equipped with specific instruments for various scientific and technological missions. These include communications satellites like Starlink; space stations such as the ISS; scientific satellites like the Hubble; Earth observation satellites from companies like Planet Labs, Umbra, and HawkEye 360; GPS; miniature CubeSats for education and research; and military/defense satellites.

Loading next visibility...
Identifier
2826, 1967-053A
Orbit
LEO
Country
Flag of USUS
Related business
Manufacturer
NRL
Mission
Operational spacecraft
Bus & Motor
NRL 14"?, Unknown motor
Mass
5 kg wet, 5 kg dry
Launch date (UTC)
1967-05-31 (59 years ago)
Launch vehicle
THOR SLV-2 AGENA D
Launch site
Air Force Western Test Range (AFWTR)
Object type
Payload
Rocket body
Debris
Shape & HBR
Unknown
Radar Cross Section
Medium (>0.1 m² and <1 m²)

Expand to show TLE details & history
Last TLE update: 12 hours ago

TLE from 12 hours ago
0 OPS 5712 (P/L 160)
1 02826U 67053A   25347.24808365  .00017800  00000-0  26911-2 0  9993
2 02826  69.9172 132.9254 0005525 289.6726  70.3823 14.74268934 38795
Epoch: 2025-12-13T05:57Z
TLE epoch observation values (Epoch: 2025-12-13T05:57:14.427Z)
Latitude
-0.00007°
Longitude
-38.56282°
Altitude
648.563 km
Speed
7.534 km/s
True Right ascension
08h 51m 42s
True Declination
0° 00' 00"
Sunlit
Object was in full shadow at epoch
Visualization orbit readout
Latitude
Unknown
Longitude
Unknown
Altitude
Unknown
Speed
Unknown
Apparent Right ascension
Unknown
Apparent Declination
Unknown
Sunlit
N/A
Visualization observer readout
Local Sidereal Time
16:46:41
Azimuth
Unknown
Elevation
Unknown
Doppler factor
Unknown
Orbital elements
Apogee altitude
649.333 km
Perigee altitude
641.571 km
Semi-major axis
7,023.589 km
Eccentricity
0.00055
Inclination
69.9172°
RAAN
132.9254°
Arg. of periapsis
289.6726°
True anomaly
70.44195°
Mean anomaly
70.3823°
Eccentric anomaly
70.41212°
Mean motion
3.68727 °/min
Orbital period
97.63 mins
BSTAR
0.0026911
Loading maneuver chart data...
Computing Atmospheric mass density...
Loading historical data...
Loading historical data...
Loading historical data...
Loading historical data...
Loading historical data...
Loading historical data...
Loading historical data...

Documentation

Showing up to 5 results
|